Time,TemperatureF,DewpointF,PressureIn,WindDirection,WindDirectionDegrees,WindSpeedMPH,WindSpeedGustMPH,Humidity,HourlyPrecipIn,Conditions,Clouds,dailyrainin,SoftwareType,DateUTC
2013-03-15 00:04:00,52.0,45.3,30.15,North,-999,0.0,0.0,78,0.00,,,-99.99,FreeWX-Wi 1.01,2013-03-15 07:04:00,
2013-03-15 00:14:00,51.8,45.1,30.15,North,-999,0.0,0.0,78,0.00,,,-99.99,FreeWX-Wi 1.01,2013-03-15 07:14:00,
2013-03-15 00:24:00,51.6,45.3,30.15,North,-999,0.0,0.0,79,0.00,,,-99.99,FreeWX-Wi 1.01,2013-03-15 07:24:00,
2013-03-15 00:34:00,51.6,45.3,30.15,North,-999,0.0,0.0,79,0.00,,,-99.99,FreeWX-Wi 1.01,2013-03-15 07:34:00,
2013-03-15 00:44:00,51.4,45.1,30.12,North,-999,0.0,0.0,79,0.00,,,-99.99,FreeWX-Wi 1.01,2013-03-15 07:44:00,
2013-03-15 00:54:00,51.4,45.1,30.15,North,-999,0.0,4.0,79,0.00,,,-99.99,FreeWX-Wi 1.01,2013-03-15 07:54:00,
2013-03-15 01:04:00,51.3,45.3,30.15,North,-999,0.0,0.0,80,0.00,,,-99.99,FreeWX-Wi 1.01,2013-03-15 08:04:00,
2013-03-15 01:14:00,51.3,45.7,30.12,North,-999,0.0,0.0,81,0.00,,,-99.99,FreeWX-Wi 1.01,2013-03-15 08:14:00,
2013-03-15 01:24:00,50.9,45.3,30.15,North,-999,0.0,4.0,81,0.00,,,-99.99,FreeWX-Wi 1.01,2013-03-15 08:24:00,
2013-03-15 01:34:00,50.9,45.3,30.15,North,-999,0.0,4.0,81,0.00,,,-99.99,FreeWX-Wi 1.01,2013-03-15 08:34:00,
2013-03-15 01:44:00,50.9,45.7,30.15,North,-999,0.0,3.1,82,0.00,,,-99.99,FreeWX-Wi 1.01,2013-03-15 08:44:00,
2013-03-15 01:54:00,51.1,45.9,30.15,North,-999,0.0,4.0,82,0.00,,,-99.99,FreeWX-Wi 1.01,2013-03-15 08:54:00,
2013-03-15 02:04:00,51.1,45.9,30.15,North,-999,0.0,0.0,82,0.00,,,-99.99,FreeWX-Wi 1.01,2013-03-15 09:04:00,
2013-03-15 02:14:00,50.9,45.7,30.15,North,-999,0.0,0.0,82,0.00,,,-99.99,FreeWX-Wi 1.01,2013-03-15 09:14:00,
2013-03-15 02:24:00,50.7,45.5,30.12,North,-999,0.0,0.0,82,0.00,,,-99.99,FreeWX-Wi 1.01,2013-03-15 09:24:00,
2013-03-15 02:34:00,50.5,45.3,30.12,North,-999,0.0,0.0,82,0.00,,,-99.99,FreeWX-Wi 1.01,2013-03-15 09:34:00,
2013-03-15 02:44:00,50.4,45.1,30.12,North,-999,0.0,0.0,82,0.00,,,-99.99,FreeWX-Wi 1.01,2013-03-15 09:44:00,
2013-03-15 02:54:00,50.2,45.0,30.12,North,-999,0.0,0.0,82,0.00,,,-99.99,FreeWX-Wi 1.01,2013-03-15 09:54:00,
2013-03-15 03:04:00,50.2,45.0,30.12,North,-999,0.0,0.0,82,0.00,,,-99.99,FreeWX-Wi 1.01,2013-03-15 10:04:00,
2013-03-15 03:14:00,50.2,45.1,30.12,North,-999,0.0,0.0,83,0.00,,,-99.99,FreeWX-Wi 1.01,2013-03-15 10:14:00,
2013-03-15 03:24:00,50.2,45.5,30.12,North,-999,0.0,0.0,84,0.00,,,-99.99,FreeWX-Wi 1.01,2013-03-15 10:24:00,
2013-03-15 03:34:00,50.2,45.9,30.12,North,-999,0.0,0.0,85,0.00,,,-99.99,FreeWX-Wi 1.01,2013-03-15 10:34:00,
2013-03-15 03:44:00,50.2,45.9,30.12,North,-999,0.0,4.0,85,0.00,,,-99.99,FreeWX-Wi 1.01,2013-03-15 10:44:00,
2013-03-15 03:54:00,50.0,45.7,30.12,North,-999,0.0,0.0,85,0.00,,,-99.99,FreeWX-Wi 1.01,2013-03-15 10:54:00,
2013-03-15 04:04:00,49.8,45.5,30.12,North,-999,0.0,0.0,85,0.00,,,-99.99,FreeWX-Wi 1.01,2013-03-15 11:04:00,
2013-03-15 04:14:00,49.6,45.3,30.12,North,-999,0.0,0.0,85,0.00,,,-99.99,FreeWX-Wi 1.01,2013-03-15 11:14:00,
2013-03-15 04:24:00,49.6,45.3,30.12,North,-999,0.0,0.0,85,0.00,,,-99.99,FreeWX-Wi 1.01,2013-03-15 11:24:00,
2013-03-15 04:34:00,49.6,45.3,30.12,North,-999,0.0,0.0,85,0.00,,,-99.99,FreeWX-Wi 1.01,2013-03-15 11:34:00,
2013-03-15 04:44:00,49.6,45.3,30.12,North,-999,0.0,0.0,85,0.00,,,-99.99,FreeWX-Wi 1.01,2013-03-15 11:44:00,
2013-03-15 04:54:00,49.5,45.1,30.12,North,-999,0.0,0.0,85,0.00,,,-99.99,FreeWX-Wi 1.01,2013-03-15 11:54:00,
2013-03-15 05:04:00,49.5,45.1,30.12,North,-999,0.0,0.0,85,0.00,,,-99.99,FreeWX-Wi 1.01,2013-03-15 12:04:00,
2013-03-15 05:14:00,49.5,45.1,30.12,North,-999,0.0,0.0,85,0.00,,,-99.99,FreeWX-Wi 1.01,2013-03-15 12:14:00,
2013-03-15 05:24:00,49.5,45.1,30.12,North,-999,0.0,0.0,85,0.00,,,-99.99,FreeWX-Wi 1.01,2013-03-15 12:24:00,
2013-03-15 05:34:00,49.5,45.1,30.12,North,-999,0.0,0.0,85,0.00,,,-99.99,FreeWX-Wi 1.01,2013-03-15 12:34:00,
2013-03-15 05:44:00,49.5,45.1,30.12,North,-999,0.0,0.0,85,0.00,,,-99.99,FreeWX-Wi 1.01,2013-03-15 12:44:00,
2013-03-15 05:54:00,49.3,45.0,30.12,North,-999,0.0,0.0,85,0.00,,,-99.99,FreeWX-Wi 1.01,2013-03-15 12:54:00,
2013-03-15 06:04:00,49.3,45.0,30.12,North,-999,0.0,0.0,85,0.00,,,-99.99,FreeWX-Wi 1.01,2013-03-15 13:04:00,
2013-03-15 06:14:00,49.3,45.3,30.12,North,-999,0.0,0.0,86,0.00,,,-99.99,FreeWX-Wi 1.01,2013-03-15 13:14:00,
2013-03-15 06:24:00,49.6,45.7,30.12,North,-999,0.0,0.0,86,0.00,,,-99.99,FreeWX-Wi 1.01,2013-03-15 13:24:00,
2013-03-15 06:34:00,49.6,45.7,30.12,North,-999,0.0,0.0,86,0.00,,,-99.99,FreeWX-Wi 1.01,2013-03-15 13:34:00,
2013-03-15 06:44:00,49.8,45.9,30.12,North,-999,0.0,0.0,86,0.00,,,-99.99,FreeWX-Wi 1.01,2013-03-15 13:44:00,
2013-03-15 06:54:00,49.8,45.9,30.12,North,-999,0.0,0.0,86,0.00,,,-99.99,FreeWX-Wi 1.01,2013-03-15 13:54:00,
2013-03-15 07:04:00,49.6,45.7,30.12,North,-999,0.0,0.0,86,0.00,,,-99.99,FreeWX-Wi 1.01,2013-03-15 14:04:00,
2013-03-15 07:14:00,49.8,45.9,30.12,North,-999,0.0,0.0,86,0.00,,,-99.99,FreeWX-Wi 1.01,2013-03-15 14:14:00,
2013-03-15 07:24:00,49.8,45.9,30.12,North,-999,0.0,0.0,86,0.00,,,-99.99,FreeWX-Wi 1.01,2013-03-15 14:24:00,
2013-03-15 07:34:00,49.8,45.9,30.12,North,-999,0.0,0.0,86,0.00,,,-99.99,FreeWX-Wi 1.01,2013-03-15 14:34:00,
2013-03-15 07:44:00,50.2,46.2,30.12,North,-999,0.0,0.0,86,0.00,,,-99.99,FreeWX-Wi 1.01,2013-03-15 14:44:00,
2013-03-15 07:54:00,50.4,46.4,30.12,North,-999,0.0,0.0,86,0.00,,,-99.99,FreeWX-Wi 1.01,2013-03-15 14:54:00,
2013-03-15 08:04:00,50.7,46.8,30.12,North,-999,0.0,0.0,86,0.00,,,-99.99,FreeWX-Wi 1.01,2013-03-15 15:04:00,
2013-03-15 08:14:00,51.3,47.5,30.12,North,-999,0.0,0.0,87,0.00,,,-99.99,FreeWX-Wi 1.01,2013-03-15 15:14:00,
2013-03-15 08:24:00,51.4,47.7,30.12,North,-999,0.0,0.0,87,0.00,,,-99.99,FreeWX-Wi 1.01,2013-03-15 15:24:00,
2013-03-15 08:34:00,51.8,47.7,30.12,North,-999,0.0,0.0,86,0.00,,,-99.99,FreeWX-Wi 1.01,2013-03-15 15:34:00,
2013-03-15 08:44:00,52.3,48.2,30.12,North,-999,0.0,0.0,86,0.00,,,-99.99,FreeWX-Wi 1.01,2013-03-15 15:44:00,
2013-03-15 08:54:00,52.7,48.6,30.12,North,-999,0.0,0.0,86,0.00,,,-99.99,FreeWX-Wi 1.01,2013-03-15 15:54:00,
2013-03-15 09:04:00,53.1,48.9,30.12,North,-999,0.0,0.0,86,0.00,,,-99.99,FreeWX-Wi 1.01,2013-03-15 16:04:00,
2013-03-15 09:14:00,53.4,49.3,30.12,North,-999,0.0,0.0,86,0.00,,,-99.99,FreeWX-Wi 1.01,2013-03-15 16:14:00,
2013-03-15 09:24:00,54.0,49.6,30.12,North,-999,0.0,0.0,85,0.00,,,-99.99,FreeWX-Wi 1.01,2013-03-15 16:24:00,
2013-03-15 09:34:00,54.5,49.8,30.12,North,-999,0.0,0.0,84,0.00,,,-99.99,FreeWX-Wi 1.01,2013-03-15 16:34:00,
2013-03-15 09:44:00,55.2,49.8,30.12,North,-999,0.0,3.1,82,0.00,,,-99.99,FreeWX-Wi 1.01,2013-03-15 16:44:00,
2013-03-15 09:54:00,55.8,49.3,30.15,North,-999,0.0,5.8,79,0.00,,,-99.99,FreeWX-Wi 1.01,2013-03-15 16:54:00,
2013-03-15 10:04:00,56.1,48.9,30.15,North,-999,0.0,3.6,77,0.00,,,-99.99,FreeWX-Wi 1.01,2013-03-15 17:04:00,
2013-03-15 10:14:00,56.7,49.1,30.15,North,-999,0.0,4.0,76,0.00,,,-99.99,FreeWX-Wi 1.01,2013-03-15 17:14:00,
2013-03-15 10:24:00,57.2,48.6,30.15,North,-999,0.0,3.1,73,0.00,,,-99.99,FreeWX-Wi 1.01,2013-03-15 17:24:00,
2013-03-15 10:34:00,57.6,48.2,30.15,North,-999,0.0,3.6,71,0.00,,,-99.99,FreeWX-Wi 1.01,2013-03-15 17:34:00,
2013-03-15 10:44:00,57.9,48.6,30.15,North,-999,0.0,0.0,71,0.00,,,-99.99,FreeWX-Wi 1.01,2013-03-15 17:44:00,
2013-03-15 10:54:00,58.5,49.1,30.15,North,-999,0.0,0.0,71,0.00,,,-99.99,FreeWX-Wi 1.01,2013-03-15 17:54:00,
2013-03-15 11:04:00,59.0,49.3,30.15,North,-999,0.0,0.0,70,0.00,,,-99.99,FreeWX-Wi 1.01,2013-03-15 18:04:00,
2013-03-15 11:14:00,59.9,46.4,30.12,North,-999,0.0,3.1,61,0.00,,,-99.99,FreeWX-Wi 1.01,2013-03-15 18:14:00,
2013-03-15 11:24:00,60.4,47.3,30.12,North,-999,0.0,0.0,62,0.00,,,-99.99,FreeWX-Wi 1.01,2013-03-15 18:24:00,
2013-03-15 11:34:00,60.8,45.0,30.12,North,-999,0.0,0.0,56,0.00,,,-99.99,FreeWX-Wi 1.01,2013-03-15 18:34:00,
2013-03-15 11:44:00,61.3,45.0,30.12,North,-999,0.0,4.9,55,0.00,,,-99.99,FreeWX-Wi 1.01,2013-03-15 18:44:00,
2013-03-15 11:54:00,62.2,46.4,30.12,North,-999,0.0,4.0,56,0.00,,,-99.99,FreeWX-Wi 1.01,2013-03-15 18:54:00,
2013-03-15 12:04:00,62.8,45.3,30.12,North,-999,0.0,3.6,53,0.00,,,-99.99,FreeWX-Wi 1.01,2013-03-15 19:04:00,
2013-03-15 12:14:00,63.7,45.7,30.12,North,-999,0.0,4.0,52,0.00,,,-99.99,FreeWX-Wi 1.01,2013-03-15 19:14:00,
2013-03-15 12:24:00,64.4,46.4,30.12,North,-999,0.0,3.6,52,0.00,,,-99.99,FreeWX-Wi 1.01,2013-03-15 19:24:00,
2013-03-15 12:34:00,65.5,45.9,30.12,North,-999,0.0,4.9,49,0.00,,,-99.99,FreeWX-Wi 1.01,2013-03-15 19:34:00,
2013-03-15 12:44:00,66.2,46.9,30.12,South,176,1.0,5.4,50,0.00,,,-99.99,FreeWX-Wi 1.01,2013-03-15 19:44:00,
2013-03-15 12:54:00,66.9,46.6,30.09,SE,145,1.0,5.4,48,0.00,,,-99.99,FreeWX-Wi 1.01,2013-03-15 19:54:00,
2013-03-15 13:04:00,67.5,47.1,30.09,SSE,156,2.0,4.9,48,0.00,,,-99.99,FreeWX-Wi 1.01,2013-03-15 20:04:00,
2013-03-15 13:14:00,68.0,46.4,30.09,SSE,161,1.0,5.4,46,0.00,,,-99.99,FreeWX-Wi 1.01,2013-03-15 20:14:00,
2013-03-15 13:24:00,68.2,43.5,30.09,SSE,163,1.0,5.4,41,0.00,,,-99.99,FreeWX-Wi 1.01,2013-03-15 20:24:00,
2013-03-15 13:34:00,68.5,43.9,30.09,SSE,168,1.0,3.1,41,0.00,,,-99.99,FreeWX-Wi 1.01,2013-03-15 20:34:00,
2013-03-15 13:44:00,68.7,40.6,30.09,SSE,168,1.0,4.9,36,0.00,,,-99.99,FreeWX-Wi 1.01,2013-03-15 20:44:00,
2013-03-15 13:54:00,69.1,43.7,30.09,North,-999,0.0,5.4,40,0.00,,,-99.99,FreeWX-Wi 1.01,2013-03-15 20:54:00,
2013-03-15 14:04:00,67.5,43.5,30.09,SE,145,2.0,7.6,42,0.00,,,-99.99,FreeWX-Wi 1.01,2013-03-15 21:04:00,
2013-03-15 14:14:00,65.8,43.3,30.09,NNW,335,3.0,8.1,44,0.00,,,-99.99,FreeWX-Wi 1.01,2013-03-15 21:14:00,
2013-03-15 14:24:00,65.7,43.2,30.09,NNW,332,4.0,8.7,44,0.00,,,-99.99,FreeWX-Wi 1.01,2013-03-15 21:24:00,
2013-03-15 14:34:00,65.7,42.6,30.09,NNW,328,4.0,6.7,43,0.00,,,-99.99,FreeWX-Wi 1.01,2013-03-15 21:34:00,
2013-03-15 14:44:00,64.8,42.3,30.09,NNW,333,4.0,9.2,44,0.00,,,-99.99,FreeWX-Wi 1.01,2013-03-15 21:44:00,
2013-03-15 14:54:00,63.0,44.1,30.09,NNW,344,4.0,8.3,50,0.00,,,-99.99,FreeWX-Wi 1.01,2013-03-15 21:54:00,
2013-03-15 15:04:00,62.4,44.6,30.09,NNW,331,3.0,5.4,52,0.00,,,-99.99,FreeWX-Wi 1.01,2013-03-15 22:04:00,
2013-03-15 15:14:00,62.4,43.5,30.09,NNW,331,2.0,8.7,50,0.00,,,-99.99,FreeWX-Wi 1.01,2013-03-15 22:14:00,
2013-03-15 15:24:00,62.1,44.2,30.09,NW,323,2.0,6.7,52,0.00,,,-99.99,FreeWX-Wi 1.01,2013-03-15 22:24:00,
2013-03-15 15:34:00,62.1,44.8,30.09,North,358,2.0,5.8,53,0.00,,,-99.99,FreeWX-Wi 1.01,2013-03-15 22:34:00,
2013-03-15 15:44:00,62.6,44.8,30.06,North,352,2.0,6.3,52,0.00,,,-99.99,FreeWX-Wi 1.01,2013-03-15 22:44:00,
2013-03-15 15:54:00,62.2,44.4,30.06,West,276,3.0,9.2,52,0.00,,,-99.99,FreeWX-Wi 1.01,2013-03-15 22:54:00,
2013-03-15 16:04:00,62.2,45.0,30.06,WSW,257,2.0,6.3,53,0.00,,,-99.99,FreeWX-Wi 1.01,2013-03-15 23:04:00,
2013-03-15 16:14:00,62.6,45.1,30.06,West,264,2.0,6.7,53,0.00,,,-99.99,FreeWX-Wi 1.01,2013-03-15 23:14:00,
2013-03-15 16:24:00,62.2,45.3,30.06,WNW,283,2.0,7.6,54,0.00,,,-99.99,FreeWX-Wi 1.01,2013-03-15 23:24:00,
2013-03-15 16:34:00,61.3,46.0,30.06,WNW,292,3.0,8.3,57,0.00,,,-99.99,FreeWX-Wi 1.01,2013-03-15 23:34:00,
2013-03-15 16:44:00,60.4,46.4,30.09,NW,313,4.0,9.6,60,0.00,,,-99.99,FreeWX-Wi 1.01,2013-03-15 23:44:00,
2013-03-15 16:54:00,59.9,46.4,30.09,NNW,330,4.0,9.2,61,0.00,,,-99.99,FreeWX-Wi 1.01,2013-03-15 23:54:00,
2013-03-15 17:04:00,59.5,46.9,30.09,NNW,336,5.0,11.9,63,0.00,,,-99.99,FreeWX-Wi 1.01,2013-03-16 00:04:00,
2013-03-15 17:14:00,59.2,46.9,30.06,NNW,339,5.0,10.5,64,0.00,,,-99.99,FreeWX-Wi 1.01,2013-03-16 00:14:00,
2013-03-15 17:24:00,59.0,46.8,30.06,NNW,336,5.0,11.0,64,0.00,,,-99.99,FreeWX-Wi 1.01,2013-03-16 00:24:00,
2013-03-15 17:34:00,59.0,46.8,30.06,NNW,333,5.0,10.1,64,0.00,,,-99.99,FreeWX-Wi 1.01,2013-03-16 00:34:00,
2013-03-15 17:45:00,58.5,47.1,30.06,NNW,332,5.0,12.3,66,0.00,,,-99.99,FreeWX-Wi 1.01,2013-03-16 00:45:00,
2013-03-15 17:55:00,58.5,47.1,30.06,NNW,344,4.0,7.2,66,0.00,,,-99.99,FreeWX-Wi 1.01,2013-03-16 00:55:00,
2013-03-15 18:05:00,58.5,47.1,30.06,NNE,16,4.0,7.2,66,0.00,,,-99.99,FreeWX-Wi 1.01,2013-03-16 01:05:00,
2013-03-15 18:15:00,58.5,47.1,30.06,NNE,30,2.0,5.8,66,0.00,,,-99.99,FreeWX-Wi 1.01,2013-03-16 01:15:00,
2013-03-15 18:25:00,58.5,47.1,30.06,NNW,341,2.0,5.8,66,0.00,,,-99.99,FreeWX-Wi 1.01,2013-03-16 01:25:00,
2013-03-15 18:35:00,57.9,46.9,30.06,NW,308,2.0,8.1,67,0.00,,,-99.99,FreeWX-Wi 1.01,2013-03-16 01:35:00,
2013-03-15 18:45:00,57.4,47.3,30.06,NW,306,3.0,6.3,69,0.00,,,-99.99,FreeWX-Wi 1.01,2013-03-16 01:45:00,
2013-03-15 18:55:00,57.2,47.5,30.06,NW,319,2.0,5.4,70,0.00,,,-99.99,FreeWX-Wi 1.01,2013-03-16 01:55:00,
2013-03-15 19:05:00,57.0,47.7,30.06,NNW,328,1.0,5.8,71,0.00,,,-99.99,FreeWX-Wi 1.01,2013-03-16 02:05:00,
2013-03-15 19:15:00,56.7,48.0,30.06,NNW,339,2.0,8.7,73,0.00,,,-99.99,FreeWX-Wi 1.01,2013-03-16 02:15:00,
2013-03-15 19:25:00,56.3,47.8,30.06,NNW,336,3.0,11.0,73,0.00,,,-99.99,FreeWX-Wi 1.01,2013-03-16 02:25:00,
2013-03-15 19:35:00,55.9,47.5,30.06,NW,314,2.0,3.1,73,0.00,,,-99.99,FreeWX-Wi 1.01,2013-03-16 02:35:00,
2013-03-15 19:45:00,55.8,47.7,30.06,WNW,291,1.0,3.6,74,0.00,,,-99.99,FreeWX-Wi 1.01,2013-03-16 02:45:00,
2013-03-15 19:55:00,55.6,47.8,30.06,NW,317,1.0,4.9,75,0.00,,,-99.99,FreeWX-Wi 1.01,2013-03-16 02:55:00,
2013-03-15 20:05:00,55.2,48.2,30.06,NNW,335,1.0,3.6,77,0.00,,,-99.99,FreeWX-Wi 1.01,2013-03-16 03:05:00,
2013-03-15 20:15:00,55.4,48.0,30.06,North,-999,0.0,0.0,76,0.00,,,-99.99,FreeWX-Wi 1.01,2013-03-16 03:15:00,
2013-03-15 20:25:00,55.2,47.8,30.06,North,-999,0.0,4.0,76,0.00,,,-99.99,FreeWX-Wi 1.01,2013-03-16 03:25:00,
2013-03-15 20:35:00,55.0,47.7,30.06,North,-999,0.0,2.2,76,0.00,,,-99.99,FreeWX-Wi 1.01,2013-03-16 03:35:00,
2013-03-15 20:45:00,55.0,48.0,30.06,North,-999,0.0,0.0,77,0.00,,,-99.99,FreeWX-Wi 1.01,2013-03-16 03:45:00,
2013-03-15 20:55:00,55.0,48.0,30.06,North,-999,0.0,4.0,77,0.00,,,-99.99,FreeWX-Wi 1.01,2013-03-16 03:55:00,
2013-03-15 21:05:00,54.9,47.8,30.06,North,-999,0.0,3.6,77,0.00,,,-99.99,FreeWX-Wi 1.01,2013-03-16 04:05:00,
2013-03-15 21:15:00,54.5,48.2,30.06,NNW,341,1.0,7.6,79,0.00,,,-99.99,FreeWX-Wi 1.01,2013-03-16 04:15:00,
2013-03-15 21:25:00,54.1,48.4,30.09,NW,320,2.0,10.1,81,0.00,,,-99.99,FreeWX-Wi 1.01,2013-03-16 04:25:00,
2013-03-15 21:35:00,53.6,48.9,30.09,WNW,303,3.0,8.3,84,0.00,,,-99.99,FreeWX-Wi 1.01,2013-03-16 04:35:00,
2013-03-15 21:45:00,53.2,49.1,30.09,WNW,301,4.0,10.5,86,0.00,,,-99.99,FreeWX-Wi 1.01,2013-03-16 04:45:00,
2013-03-15 21:55:00,53.1,49.3,30.09,NW,310,4.0,8.1,87,0.00,,,-99.99,FreeWX-Wi 1.01,2013-03-16 04:55:00,
2013-03-15 22:05:00,52.9,49.5,30.09,NW,305,4.0,5.8,88,0.00,,,-99.99,FreeWX-Wi 1.01,2013-03-16 05:05:00,
2013-03-15 22:15:00,52.9,49.5,30.09,WNW,282,3.0,8.1,88,0.00,,,-99.99,FreeWX-Wi 1.01,2013-03-16 05:15:00,
2013-03-15 22:25:00,52.7,49.5,30.09,West,264,2.0,8.1,89,0.00,,,-99.99,FreeWX-Wi 1.01,2013-03-16 05:25:00,
2013-03-15 22:35:00,52.5,49.5,30.09,West,265,2.0,5.8,89,0.00,,,-99.99,FreeWX-Wi 1.01,2013-03-16 05:35:00,
2013-03-15 22:45:00,52.2,49.1,30.09,WNW,286,2.0,7.6,89,0.00,,,-99.99,FreeWX-Wi 1.01,2013-03-16 05:45:00,
2013-03-15 22:55:00,52.0,49.5,30.09,NW,325,3.0,8.3,91,0.00,,,-99.99,FreeWX-Wi 1.01,2013-03-16 05:55:00,
2013-03-15 23:05:00,51.8,49.3,30.09,NNW,342,3.0,9.2,91,0.00,,,-99.99,FreeWX-Wi 1.01,2013-03-16 06:05:00,
2013-03-15 23:15:00,51.6,49.6,30.09,North,349,3.0,8.3,93,0.00,,,-99.99,FreeWX-Wi 1.01,2013-03-16 06:15:00,
2013-03-15 23:25:00,51.6,49.6,30.09,North,351,3.0,7.6,93,0.00,,,-99.99,FreeWX-Wi 1.01,2013-03-16 06:25:00,
2013-03-15 23:35:00,51.6,50.0,30.09,North,2,3.0,8.1,94,0.00,,,-99.99,FreeWX-Wi 1.01,2013-03-16 06:35:00,
2013-03-15 23:45:00,51.4,49.8,30.09,NNE,13,3.0,5.4,94,0.00,,,-99.99,FreeWX-Wi 1.01,2013-03-16 06:45:00,
2013-03-15 23:55:00,51.4,49.8,30.09,NNE,33,3.0,8.1,94,0.00,,,-99.99,FreeWX-Wi 1.01,2013-03-16 06:55:00,